Hourly Data Report for September 20, 2017

All times are specified in Local Standard Time (LST). Add 1 hour to adjust for Daylight Saving Time where and when it is observed.

RESOLUTE BAY A
NUNAVUT

74°43'01.000" N
94°58'10.000" W
67.70 m
2403498
71924
YRB

Download Data

Hourly Data (September 2017)
Hourly Data Report for September 20, 2017
Temp Definition
°C
Dew Point Temp Definition
°C
Rel Hum Definition
%
Wind Dir Definition
10's deg

Wind Spd Definition
km/h
Visibility Definition
km
Stn Press Definition
kPa
Hmdx Definition


Wind Chill Definition


Weather Definition


TIME
00:00 Legend Double Dagger -6.1 -12.7 60 2 7 24.1 102.15   -9 Clear
01:00 Legend Double Dagger -4.6 -11.9 57 7 10 24.1 102.15   -9 LegendNANA
02:00 Legend Double Dagger -8.3 -13.2 69 36 1 24.1 102.18   -9 LegendNANA
03:00 Legend Double Dagger -5.8 -11.9 63 6 14 24.1 102.19   -11 Clear
04:00 Legend Double Dagger -6.4 -13.5 57 36 5 24.1 102.19   -9 LegendNANA
05:00 Legend Double Dagger -5.9 -12.9 58 36 2 24.1 102.21   -7 LegendNANA
06:00 Legend Double Dagger -4.9 -12.4 56 0 1 24.1 102.22   -5 Clear
07:00 Legend Double Dagger -4.8 -12.7 55 16 5 24.1 102.23   -7 LegendNANA
08:00 Legend Double Dagger -4.2 -11.4 58 15 4 24.1 102.25   -6 LegendNANA
09:00 Legend Double Dagger -4.3 -11.8 56 36 1 24.1 102.27   -5 Mainly Clear
10:00 Legend Double Dagger -4.2 -11.7 56 36 3 24.1 102.27   -5 LegendNANA
11:00 Legend Double Dagger -4.2 -10.6 61 36 1 24.1 102.27   -5 LegendNANA
12:00 Legend Double Dagger -3.1 -9.7 60 14 4 24.1 102.26   -5 Clear
13:00 Legend Double Dagger -3.8 -10.0 62 17 3 24.1 102.28   -5 LegendNANA
14:00 Legend Double Dagger -3.6 -10.4 59 36 3 24.1 102.27   -5 LegendNANA
15:00 Legend Double Dagger -3.8 -10.1 62 36 3 24.1 102.28   -5 Clear
16:00 Legend Double Dagger -4.8 -9.7 69 33 3 24.1 102.29   -6 LegendNANA
17:00 Legend Double Dagger -4.8 -10.3 66 31 6 24.1 102.29   -8 LegendNANA
18:00 Legend Double Dagger -3.6 -9.8 63 36 1 24.1 102.27   -4 Clear
19:00 Legend Double Dagger -4.9 -10.2 66 25 5 24.1 102.28   -7 LegendNANA
20:00 Legend Double Dagger -4.5 -8.7 72 2 5 24.1 102.27   -7 LegendNANA
21:00 Legend Double Dagger -3.4 -10.0 61 13 4 24.1 102.25   -5 Mainly Clear
22:00 Legend Double Dagger -2.6 -10.1 57 13 4 24.1 102.22   -4 LegendNANA
23:00 Legend Double Dagger -5.5 -11.0 66 14 5 24.1 102.21   -8 LegendNANA

Notes on Data Quality.

Legend

  • E = Estimated
  • M = Missing
  • NA = Not Available
  • ‡ = Partner data that is not subject to review by the National Climate Archives
Date modified: